Terminal Aerodrome Forecast
Issued by NWS Greer, SC

Home | Current Version | Previous Version | Text Only | Print | Product List | Glossary On
Versions: 1 2 3 4 5 6 7 8 9 10 11 12 13 14 15 16 17 18 19 20 21 22 23 24 25 26 27 28 29 30 31 32 33 34 35 36 37 38 39 40 41 42 43 44 45 46 47 48 49 50
000
FTUS42 KGSP 260237 AAD
TAFCLT
TAF AMD
KCLT 260237Z 2603/2624 04005KT P6SM -RA FEW025 BKN040 OVC070
     FM260400 02004KT P6SM -RA BKN025 OVC060
     FM260600 02010KT 4SM -RA BR OVC017
      TEMPO 2610/2614 3SM -RA BR BKN009 OVC012
     FM261400 34011KT 4SM -RA BR OVC012
     FM261900 29007KT P6SM OVC045=

USA.gov is the U.S. government's official web portal to all federal, state and local government web resources and services.